Location: St. Louis
(38.6270°N, 90.1994°W)
Time: 09:19:53
(UTC-06:00)

Vanguard 2 Rocket - Pass Details

Date: 07 December 2021
Orbit: 553 x 3325 km, 32.9° (Epoch: 23 January)

Event Time Altitude Azimuth Distance (km) Brightness Sun altitude
Rises 19:23:07 0° 265° (W) 3,376 11.0 -31.2°
Reaches altitude 10° 19:25:11 10° 260° (W) 2,653 10.1 -31.6°
Maximum altitude 19:31:27 57° 183° (S) 1,536 7.9 -32.8°
Enters shadow 19:32:24 54° 159° (SSE) 1,647 7.9 -33.0°
Drops below altitude 10° 19:42:35 10° 109° (ESE) 4,585 - -35.0°
Sets 19:47:19 0° 107° (ESE) 6,043 - -35.9°
